Regional Weather Roundup
Issued by NWS Cleveland, OH

Home | Current Version | Previous Version | Graphics & Text | Print | Product List | Glossary On
Versions: 1 2 3 4 5 6 7 8 9 10 11 12 13 14 15 16 17 18 19 20 21 22 23 24 25 26 27 28 29 30 31 32 33 34 35 36 37 38 39 40 41 42 43 44 45 46 47 48 49 50
000
ASUS41 KCLE 281202
RWRCLE
OHIO REGIONAL WEATHER ROUNDUP
NATIONAL WEATHER SERVICE CLEVELAND, OH
700 AM EST FRI NOV 28 2014

NOTE: "FAIR" INDICATES FEW OR NO CLOUDS BELOW 12,000 FEET WITH NO
SIGNIFICANT WEATHER AND/OR OBSTRUCTIONS TO VISIBILITY.

OHZ001>008-015>018-024>027-034-035-043-044-281300-
   NORTHWEST OHIO

CITY           SKY/WX    TMP DP  RH WIND       PRES   REMARKS
DEFIANCE       MOCLDY    21  16  81 SW5       30.38R WCI  15
FINDLAY        MOCLDY    22  18  85 W7        30.36R WCI  13
TOLEDO EXPRESS MOCLDY    16   9  74 CALM      30.37R
TOLEDO EXEC    PTCLDY    17   9  70 SW6       30.39R WCI   9
LIMA           CLOUDY    24  17  74 W7        30.37R WCI  16
$$

OHZ009>014-019>023-028>033-038-089-281300-
   NORTHEAST OHIO

CITY           SKY/WX    TMP DP  RH WIND       PRES   REMARKS
CLE-HOPKINS    MOCLDY    23  13  65 W12       30.36S WCI  12
CLE-LAKEFRONT  CLOUDY    26  15  63 W12G18    30.33R WCI  16
CUY CO. ARPT   FLURRIES  27  16  63 NW16      30.32  WCI  14
LORAIN-ELYRIA  PTCLDY    15  10  80 W8        30.35R WCI   4
ASHTABULA      FLURRIES  23  15  71 NW9G16    30.30S WCI  13
AKRON-CANTON   MOCLDY    20  12  71 W7        30.31S WCI  11
WOOSTER        CLOUDY    20  12  71 NW12      30.34R WCI   8
MANSFIELD      CLOUDY    20  14  77 NW7       30.33R WCI  11
YOUNGSTOWN     PTCLDY    20  13  74 W13       30.28R WCI   7
$$

OHZ042-051>053-060>062-070>072-077>081-281300-
  SOUTHWEST OHIO

CITY           SKY/WX    TMP DP  RH WIND       PRES   REMARKS
CINC-COVINGTON CLOUDY    27  19  72 W8        30.39R WCI  19
CINC-LUNKEN    CLOUDY    27  19  72 SW5       30.43R WCI  22
HAMILTON       CLOUDY    26  17  68 N3        30.42R
DAYTON         MOCLDY    20  16  84 W5        30.39R WCI  13
WRIGHT-PAT AFB NOT AVBL
DAYTON GENERAL CLOUDY    24  15  68 CALM      30.38R
WILMINGTON     CLOUDY    21  16  81 W3        30.38R
$$

OHZ036-037-039>041-045>050-054>059-063>069-073>076-082>088-281300-
  CENTRAL AND SOUTHEAST OHIO

CITY           SKY/WX    TMP DP  RH WIND       PRES   REMARKS
COLUMBUS       PTCLDY    22  17  81 CALM      30.37R
OSU AIRPORT    MOCLDY    22  17  81 W7        30.36R WCI  13
BOLTON FIELD   NOT AVBL
RICKENBACK AFB NOT AVBL
NEWARK         PTCLDY    23  17  78 W6        30.35R WCI  16
MARION         MOCLDY    21  16  81 NW5       30.36R WCI  15
LANCASTER      CLEAR     17  14  88 S3        30.37R
ZANESVILLE     FLURRIES  26  21  81 W7        30.35R WCI  18
NEW PHILLY     CLEAR     22  10  60 NW3       30.35S
$$



USA.gov is the U.S. government's official web portal to all federal, state and local government web resources and services.